EDT,Max TemperatureF,Mean TemperatureF,Min TemperatureF,Max Dew PointF,MeanDew PointF,Min DewpointF,Max Humidity, Mean Humidity, Min Humidity, Max Sea Level PressureIn, Mean Sea Level PressureIn, Min Sea Level PressureIn, Max VisibilityMiles, Mean VisibilityMiles, Min VisibilityMiles, Max Wind SpeedMPH, Mean Wind SpeedMPH, Max Gust SpeedMPH,PrecipitationIn, CloudCover, Events, WindDirDegrees
2014-4-1,86,71,56,61,56,46,100,67,27,30.19,30.14,30.09,10,9,4,14,4,17,0.00,0,,83
2014-4-2,85,72,58,62,58,51,97,68,34,30.19,30.15,30.10,10,10,10,14,5,18,0.00,0,,165
2014-4-3,83,72,60,65,61,58,97,71,45,30.16,30.11,30.05,10,10,10,16,6,20,0.00,0,,154
2014-4-4,84,74,63,66,63,60,93,71,47,30.08,30.04,30.01,10,10,9,16,6,20,0.00,1,,187
2014-4-5,86,76,65,68,64,56,100,70,37,30.06,30.02,29.99,10,10,7,16,5,20,0.00,1,,240
2014-4-6,85,75,65,68,65,63,100,72,51,30.05,29.99,29.93,10,10,9,16,6,23,0.00,0,,194
2014-4-7,89,80,70,70,67,65,90,71,46,29.97,29.91,29.86,10,10,10,22,9,27,0.00,1,,172
2014-4-8,80,75,69,75,69,59,97,87,70,29.93,29.83,29.76,10,6,2,26,12,37,0.68,6,Rain-Thunderstorm,226
2014-4-9,76,69,62,56,52,47,73,55,36,30.19,30.04,29.92,10,10,10,24,13,32,0.00,2,,309
2014-4-10,82,70,57,55,52,47,86,57,30,30.27,30.21,30.17,10,10,9,16,9,22,0.00,2,,70
2014-4-11,86,73,59,67,58,51,84,64,35,30.25,30.17,30.10,10,9,2,17,8,22,0.24,3,Rain,80
2014-4-12,87,76,65,65,61,54,93,64,34,30.19,30.12,30.06,10,10,8,15,8,21,0.00,1,,87
2014-4-13,84,74,64,68,65,61,93,76,51,30.11,30.06,29.99,10,10,4,23,10,31,0.00,3,,75
2014-4-14,87,78,69,71,69,66,100,82,45,30.01,29.96,29.91,10,8,0,12,5,18,0.00,3,Fog,145
2014-4-15,86,79,71,74,71,67,93,82,61,29.96,29.90,29.85,10,10,7,20,11,28,0.00,4,,216
2014-4-16,79,71,63,65,61,56,84,73,54,30.10,30.03,29.95,10,10,10,18,12,23,0.00,6,,48
2014-4-17,89,79,68,70,68,63,93,80,53,30.14,30.09,30.04,10,10,6,25,10,37,0.01,5,Rain-Thunderstorm,81
2014-4-18,85,79,72,73,70,67,94,84,55,30.10,30.01,29.94,10,10,10,18,9,26,0.00,4,Rain,137
2014-4-19,79,74,68,74,66,57,94,76,54,30.01,29.95,29.89,10,10,9,22,12,28,0.00,6,Thunderstorm,279
2014-4-20,80,72,63,63,58,56,84,67,48,30.07,30.02,29.98,10,10,10,14,7,20,0.00,7,,340
2014-4-21,80,70,60,60,58,57,90,68,48,30.08,30.03,29.95,10,10,8,15,7,23,0.00,2,,2
2014-4-22,82,71,60,62,59,55,90,69,51,30.00,29.94,29.88,10,10,7,15,7,21,0.00,1,,325
2014-4-23,83,73,63,65,62,60,93,72,47,29.98,29.94,29.90,10,10,9,17,7,22,0.00,1,,309
2014-4-24,85,74,62,66,63,59,93,72,43,30.04,29.98,29.94,10,9,4,16,5,21,0.00,0,,274
2014-4-25,87,75,63,68,63,56,100,69,35,30.04,29.99,29.95,10,9,4,17,5,23,0.00,0,,310
2014-4-26,91,79,66,68,64,58,87,65,34,30.03,29.99,29.95,10,10,10,16,5,20,0.00,0,,339
2014-4-27,91,80,68,71,68,64,93,71,43,30.01,29.97,29.93,10,10,8,15,6,20,0.00,1,,172
2014-4-28,91,80,69,71,68,64,90,67,46,29.99,29.94,29.88,10,10,8,15,7,21,0.00,1,,168
2014-4-29,92,83,73,75,71,66,93,73,44,29.97,29.92,29.88,10,10,8,129,10,129,0.00,1,Thunderstorm,167
2014-4-30,89,81,73,75,71,68,100,70,52,30.06,30.03,29.99,10,10,10,12,8,25,T,2,Thunderstorm,149